H1 CPF 2 NER 2025 5 29 9 149 01 glonass131 H2 1301901 9131 39155 2025 5 29 0 0 0 2025 6 1 23 45 0 900 1 1 0 0 0 1 H9 10 0 60824 0.00000 0 -19774840.019 789991.966 -16083621.362 10 0 60824 900.00000 0 -21569274.909 359346.052 -13615233.760 10 0 60824 1800.00000 0 -23079749.766 140462.665 -10882408.665 10 0 60824 2700.00000 0 -24258368.223 96185.717 -7938396.025 10 0 60824 3600.00000 0 -25067717.346 181106.640 -4840450.628 10 0 60824 4500.00000 0 -25482351.322 343733.722 -1648714.019 10 0 60824 5400.00000 0 -25489790.807 528913.134 1574952.286 10 0 60824 6300.00000 0 -25090998.721 680398.554 4768159.617 10 0 60824 7200.00000 0 -24300315.066 743460.864 7869188.239 10 0 60824 8100.00000 0 -23144855.706 667428.458 10818164.482 10 0 60824 9000.00000 0 -21663401.863 408052.317 13558197.453 10 0 60824 9900.00000 0 -19904827.631 -70402.231 16036455.068 10 0 60824 10800.00000 0 -17926131.234 -793423.498 18205160.609 10 0 60824 11700.00000 0 -15790151.333 -1774952.580 20022492.726 10 0 60824 12600.00000 0 -13563061.990 -3016567.444 21453373.602 10 0 60824 13500.00000 0 -11311748.369 -4507186.067 22470132.028 10 0 60824 14400.00000 0 -9101169.723 -6223301.852 23053030.131 10 0 60824 15300.00000 0 -6991816.630 -8129743.184 23190644.600 10 0 60824 16200.00000 0 -5037365.561 -10180927.961 22880095.410 10 0 60824 17100.00000 0 -3282626.186 -12322563.971 22127117.249 10 0 60824 18000.00000 0 -1761865.284 -14493727.741 20945971.158 10 0 60824 18900.00000 0 -497576.334 -16629238.800 19359196.302 10 0 60824 19800.00000 0 500253.825 -18662233.611 17397204.373 10 0 60824 20700.00000 0 1234349.825 -20526834.410 15097721.801 10 0 60824 21600.00000 0 1719814.070 -22160803.178 12505087.851 10 0 60824 22500.00000 0 1983266.830 -23508070.486 9669419.561 10 0 60824 23400.00000 0 2061494.430 -24521032.819 6645657.516 10 0 60824 24300.00000 0 1999661.017 -25162520.615 3492509.372 10 0 60824 25200.00000 0 1849158.400 -25407352.062 271310.738 10 0 60824 26100.00000 0 1665184.677 -25243404.517 -2955174.443 10 0 60824 27000.00000 0 1504154.822 -24672155.448 -6123989.912 10 0 60824 27900.00000 0 1421054.556 -23708667.292 -9173233.994 10 0 60824 28800.00000 0 1466851.986 -22381014.563 -12043290.940 10 0 60824 29700.00000 0 1686079.737 -20729175.811 -14678020.343 10 0 60824 30600.00000 0 2114693.211 -18803436.430 -17025878.888 10 0 60824 31500.00000 0 2778298.948 -16662369.834 -19040950.076 10 0 60824 32400.00000 0 3690830.915 -14370482.993 -20683859.773 10 0 60824 33300.00000 0 4853733.021 -11995626.891 -21922558.078 10 0 60824 34200.00000 0 6255683.941 -9606282.611 -22732951.202 10 0 60824 35100.00000 0 7872876.614 -7268838.767 -23099370.666 10 0 60824 36000.00000 0 9669840.646 -5044975.911 -23014870.840 10 0 60824 36900.00000 0 11600772.263 -2989268.425 -22481349.822 10 0 60824 37800.00000 0 13611314.745 -1147104.348 -21509492.521 10 0 60824 38700.00000 0 15640713.097 446990.650 -20118538.609 10 0 60824 39600.00000 0 17624251.006 1770556.750 -18335881.698 10 0 60824 40500.00000 0 19495866.571 2813883.171 -16196509.401 10 0 60824 41400.00000 0 21190836.247 3580145.730 -13742297.092 10 0 60824 42300.00000 0 22648414.120 4084996.695 -11021170.883 10 0 60824 43200.00000 0 23814316.198 4355627.982 -8086157.664 10 0 60824 44100.00000 0 24642946.541 4429350.704 -4994341.971 10 0 60824 45000.00000 0 25099273.492 4351754.009 -1805750.885 10 0 60824 45900.00000 0 25160279.364 4174523.232 1417810.846 10 0 60824 46800.00000 0 24815925.159 3953010.916 4613952.814 10 0 60824 47700.00000 0 24069592.230 3743663.857 7720895.346 10 0 60824 48600.00000 0 22937984.507 3601414.479 10678648.015 10 0 60824 49500.00000 0 21450497.088 3577145.603 13430148.789 10 0 60824 50400.00000 0 19648078.605 3715334.017 15922343.477 10 0 60824 51300.00000 0 17581635.141 4051970.325 18107186.603 10 0 60824 52200.00000 0 15310041.660 4612840.937 19942546.532 10 0 60824 53100.00000 0 12897842.405 5412243.021 21392999.478 10 0 60824 54000.00000 0 10412733.848 6452185.672 22430499.007 10 0 60824 54900.00000 0 7922932.184 7722110.864 23034909.688 10 0 60824 55800.00000 0 5494531.903 9199146.863 23194395.629 10 0 60824 56700.00000 0 3188962.235 10848885.453 22905656.781 10 0 60824 57600.00000 0 1060644.554 12626653.180 22174008.114 10 0 60824 58500.00000 0 -845053.937 14479226.767 21013299.066 10 0 60824 59400.00000 0 -2493486.431 16346924.561 19445673.069 10 0 60824 60300.00000 0 -3861943.755 18165990.051 17501169.513 10 0 60824 61200.00000 0 -4940371.501 19871170.777 15217173.224 10 0 60824 62100.00000 0 -5731556.052 21398386.898 12637719.345 10 0 60824 63000.00000 0 -6250770.204 22687378.918 9812664.463 10 0 60824 63900.00000 0 -6524891.524 23684223.544 6796737.821 10 0 60824 64800.00000 0 -6591028.892 24343611.080 3648489.381 10 0 60824 65700.00000 0 -6494713.898 24630786.590 429154.225 10 0 60824 66600.00000 0 -6287732.844 24523070.421 -2798544.664 10 0 60824 67500.00000 0 -6025691.272 24010890.937 -5971631.246 10 0 60824 68400.00000 0 -5765415.223 23098282.764 -9028123.380 10 0 60824 69300.00000 0 -5562301.238 21802826.714 -11908265.555 10 0 60824 70200.00000 0 -5467729.991 20155031.711 -14555720.949 10 0 60824 71100.00000 0 -5526656.149 18197183.341 -16918697.056 10 0 60824 72000.00000 0 -5775479.682 15981707.040 -18950980.456 10 0 60824 72900.00000 0 -6240291.648 13569115.151 -20612858.419 10 0 60824 73800.00000 0 -6935571.134 11025625.230 -21871907.731 10 0 60824 74700.00000 0 -7863390.200 8420551.176 -22703634.226 10 0 60824 75600.00000 0 -9013161.390 5823578.346 -23091950.155 10 0 60824 76500.00000 0 -10361938.633 3302038.394 -23029480.247 10 0 60824 77400.00000 0 -11875258.294 918299.096 -22517691.232 10 0 60824 78300.00000 0 -13508483.796 -1272621.183 -21566843.531 10 0 60824 79200.00000 0 -15208595.704 -3225115.029 -20195767.607 10 0 60824 80100.00000 0 -16916350.305 -4904638.592 -18431471.137 10 0 60824 81000.00000 0 -18568714.339 -6288888.368 -16308586.551 10 0 60824 81900.00000 0 -20101472.304 -7368455.874 -13868671.585 10 0 60824 82800.00000 0 -21451895.989 -8146936.319 -11159378.249 10 0 60824 83700.00000 0 -22561363.869 -8640490.557 -8233507.946 10 0 60824 84600.00000 0 -23377820.838 -8876882.544 -5147972.427 10 0 60824 85500.00000 0 -23857976.012 -8894036.281 -1962681.710 10 0 60825 0.00000 0 -23969147.957 -8738175.953 1260618.573 10 0 60825 900.00000 0 -23690681.859 -8461629.646 4459539.531 10 0 60825 1800.00000 0 -23014881.218 -8120390.713 7572243.958 10 0 60825 2700.00000 0 -21947417.273 -7771539.631 10538627.344 10 0 60825 3600.00000 0 -20507200.475 -7470634.661 13301459.138 10 0 60825 4500.00000 0 -18725720.659 -7269179.980 15807465.528 10 0 60825 5400.00000 0 -16645883.926 -7212276.182 18008334.563 10 0 60825 6300.00000 0 -14320394.327 -7336550.154 19861626.337 10 0 60825 7200.00000 0 -11809746.613 -7668449.595 21331572.762 10 0 60825 8100.00000 0 -9179911.546 -8222972.489 22389753.467 10 0 60825 9000.00000 0 -6499807.395 -9002884.210 23015636.362 10 0 60825 9900.00000 0 -3838659.638 -9998455.314 23196973.482 10 0 60825 10800.00000 0 -1263355.392 -11187732.160 22930044.914 10 0 60825 11700.00000 0 1164100.613 -12537331.090 22219745.754 10 0 60825 12600.00000 0 3388925.286 -14003725.685 21079513.403 10 0 60825 13500.00000 0 5365596.323 -15534976.471 19531094.868 10 0 60825 14400.00000 0 7059507.403 -17072834.047 17604156.303 10 0 60825 15300.00000 0 8448170.603 -18555130.663 15335739.729 10 0 60825 16200.00000 0 9521915.185 -19918362.579 12769574.690 10 0 60825 17100.00000 0 10284052.275 -21100356.559 9955255.556 10 0 60825 18000.00000 0 10750496.831 -22042909.134 6947298.164 10 0 60825 18900.00000 0 10948861.093 -22694287.152 3804092.443 10 0 60825 19800.00000 0 10917056.132 -23011482.818 586770.380 10 0 60825 20700.00000 0 10701459.503 -22962125.721 -2641988.762 10 0 60825 21600.00000 0 10354726.140 -22525968.192 -5819192.029 10 0 60825 22500.00000 0 9933335.639 -21695877.984 -8882779.779 10 0 60825 23400.00000 0 9494981.206 -20478293.174 -11772859.709 10 0 60825 24300.00000 0 9095913.003 -18893117.329 -14432901.518 10 0 60825 25200.00000 0 8788351.111 -16973057.237 -16810866.354 10 0 60825 26100.00000 0 8618080.635 -14762429.912 -18860246.539 10 0 60825 27000.00000 0 8622333.628 -12315488.754 -20540993.160 10 0 60825 27900.00000 0 8828049.976 -9694339.693 -21820311.760 10 0 60825 28800.00000 0 9250592.704 -6966535.987 -22673309.458 10 0 60825 29700.00000 0 9892973.158 -4202454.009 -23083480.458 10 0 60825 30600.00000 0 10745619.088 -1472561.477 -23043020.605 10 0 60825 31500.00000 0 11786694.988 1155306.195 -22552965.564 10 0 60825 32400.00000 0 12982960.026 3618546.753 -21623151.151 10 0 60825 33300.00000 0 14291125.815 5862160.421 -20271998.089 10 0 60825 34200.00000 0 15659654.909 7840789.396 -18526127.223 10 0 60825 35100.00000 0 17030922.415 9520343.999 -16419814.529 10 0 60825 36000.00000 0 18343647.990 10879149.991 -13994298.460 10 0 60825 36900.00000 0 19535494.589 11908572.226 -11296954.907 10 0 60825 37800.00000 0 20545723.839 12613092.177 -8380357.411 10 0 60825 38700.00000 0 21317796.244 13009839.951 -5301242.220 10 0 60825 39600.00000 0 21801807.376 13127604.133 -2119399.303 10 0 60825 40500.00000 0 21956658.756 13005364.417 1103488.588 10 0 60825 41400.00000 0 21751873.793 12690411.404 4305036.197 10 0 60825 42300.00000 0 21168984.369 12236134.517 7423352.623 10 0 60825 43200.00000 0 20202431.783 11699572.068 10398222.449 10 0 60825 44100.00000 0 18859945.976 11138826.590 13172249.580 10 0 60825 45000.00000 0 17162388.430 10610453.361 15691943.331 10 0 60825 45900.00000 0 15143065.902 10166930.484 17908727.747 10 0 60825 46800.00000 0 12846543.473 9854314.995 19779856.824 10 0 60825 47700.00000 0 10327005.396 9710181.484 21269220.032 10 0 60825 48600.00000 0 7646230.160 9761927.986 22348024.593 10 0 60825 49500.00000 0 4871261.398 10025518.938 22995342.929 10 0 60825 50400.00000 0 2071868.415 10504717.371 23198515.798 10 0 60825 51300.00000 0 -682101.552 11190838.827 22953403.791 10 0 60825 52200.00000 0 -3323372.687 12063038.577 22264482.056 10 0 60825 53100.00000 0 -5789784.468 13089122.210 21144775.413 10 0 60825 54000.00000 0 -8026626.681 14226848.333 19615633.435 10 0 60825 54900.00000 0 -9988670.061 15425671.906 17706347.583 10 0 60825 55800.00000 0 -11641808.556 16628858.181 15453615.219 10 0 60825 56700.00000 0 -12964244.525 17775881.272 12900858.110 10 0 60825 57600.00000 0 -13947166.306 18805008.658 10097405.967 10 0 60825 58500.00000 0 -14594888.221 19655964.042 7097558.598 10 0 60825 59400.00000 0 -14924445.330 20272556.484 3959543.142 10 0 60825 60300.00000 0 -14964658.213 20605163.949 744385.636 10 0 60825 61200.00000 0 -14754705.777 20612964.400 -2485281.276 10 0 60825 62100.00000 0 -14342265.553 20265817.416 -5666450.668 10 0 60825 63000.00000 0 -13781300.073 19545713.558 -8736988.302 10 0 60825 63900.00000 0 -13129583.841 18447726.827 -11636867.922 10 0 60825 64800.00000 0 -12446077.223 16980426.809 -14309368.439 10 0 60825 65700.00000 0 -11788260.730 15165730.460 -16702207.132 10 0 60825 66600.00000 0 -11209545.229 13038197.892 -18768584.287 10 0 60825 67500.00000 0 -10756870.432 10643800.791 -20468116.717 10 0 60825 68400.00000 0 -10468595.775 8038215.117 -21767640.301 10 0 60825 69300.00000 0 -10372774.902 5284710.410 -22641864.678 10 0 60825 70200.00000 0 -10485887.950 2451725.373 -23073866.869 10 0 60825 71100.00000 0 -10812085.685 -389767.302 -23055414.314 10 0 60825 72000.00000 0 -11342977.019 -3168995.185 -22587111.693 10 0 60825 72900.00000 0 -12057967.767 -5818104.067 -21678369.862 10 0 60825 73800.00000 0 -12925134.649 -8274745.586 -20347199.040 10 0 60825 74700.00000 0 -13902595.575 -10484426.663 -18619832.048 10 0 60825 75600.00000 0 -14940316.210 -12402523.709 -16530186.849 10 0 60825 76500.00000 0 -15982274.539 -13995879.416 -14119180.741 10 0 60825 77400.00000 0 -16968890.401 -15243918.051 -11433911.372 10 0 60825 78300.00000 0 -17839616.287 -16139235.895 -8526722.114 10 0 60825 79200.00000 0 -18535579.565 -16687645.776 -5454171.292 10 0 60825 80100.00000 0 -19002164.836 -16907677.518 -2275926.319 10 0 60825 81000.00000 0 -19191428.285 -16829558.802 946395.213 10 0 60825 81900.00000 0 -19064243.640 -16493722.284 4150414.881 10 0 60825 82800.00000 0 -18592091.021 -15948903.947 7274190.461 10 0 60825 83700.00000 0 -17758415.290 -15249914.131 10257398.290 10 0 60825 84600.00000 0 -16559498.540 -14455175.381 13042479.382 10 0 60825 85500.00000 0 -15004811.494 -13624130.218 15575728.733 10 0 60826 0.00000 0 -13116830.115 -12814626.622 17808308.603 10 0 60826 900.00000 0 -10930324.061 -12080388.797 19697169.460 10 0 60826 1800.00000 0 -8491148.530 -11468678.357 21205859.995 10 0 60826 2700.00000 0 -5854584.870 -11018240.488 22305216.554 10 0 60826 3600.00000 0 -3083299.039 -10757620.432 22973917.247 10 0 60826 4500.00000 0 -244998.850 -10703919.195 23198892.365 10 0 60826 5400.00000 0 2590115.926 -10862040.159 22975583.476 10 0 60826 6300.00000 0 5352008.221 -11224458.606 22308045.941 10 0 60826 7200.00000 0 7973456.082 -11771525.090 21208891.886 10 0 60826 8100.00000 0 10392595.436 -12472292.014 19699073.065 10 0 60826 9000.00000 0 12555249.490 -13285831.387 17807505.608 10 0 60826 9900.00000 0 14416948.888 -14162991.287 15570541.300 10 0 60826 10800.00000 0 15944558.579 -15048520.014 13031292.898 10 0 60826 11700.00000 0 17117442.758 -15883470.880 10238823.877 10 0 60826 12600.00000 0 17928117.676 -16607787.904 7247216.070 10 0 60826 13500.00000 0 18382363.135 -17162963.981 4114531.517 10 0 60826 14400.00000 0 18498786.002 -17494658.832 901687.673 10 0 60826 15300.00000 0 18307852.335 -17555164.554 -2328732.342 10 0 60826 16200.00000 0 17850427.655 -17305612.100 -5513710.701 10 0 60826 17100.00000 0 17175886.424 -16717822.270 -8591041.733 10 0 60826 18000.00000 0 16339870.892 -15775719.452 -11500568.388 10 0 60826 18900.00000 0 15401795.180 -14476244.946 -14185381.887 10 0 60826 19800.00000 0 14422202.023 -12829728.184 -16592958.609 10 0 60826 20700.00000 0 13460086.322 -10859697.724 -18676209.572 10 0 60826 21600.00000 0 12570301.279 -8602138.341 -20394419.837 10 0 60826 22500.00000 0 11801159.243 -6104224.673 -21714057.822 10 0 60826 23400.00000 0 11192330.756 -3422584.727 -22609437.510 10 0 60826 24300.00000 0 10773131.998 -621166.836 -23063220.141 10 0 60826 25200.00000 0 10561273.562 2231199.398 -23066745.698 10 0 60826 26100.00000 0 10562123.163 5063444.667 -22620188.362 10 0 60826 27000.00000 0 10768512.336 7804992.394 -21732534.071 10 0 60826 27900.00000 0 11161093.494 10388467.000 -20421382.137 10 0 60826 28800.00000 0 11709230.038 12752264.624 -18712576.550 10 0 60826 29700.00000 0 12372379.412 14842879.452 -16639676.049 10 0 60826 30600.00000 0 13101908.224 16616889.829 -14243275.176 10 0 60826 31500.00000 0 13843260.513 18042523.250 -11570191.357 10 0 60826 32400.00000 0 14538385.832 19100737.602 -8672535.454 10 0 60826 33300.00000 0 15128323.431 19785776.727 -5606685.198 10 0 60826 34200.00000 0 15555832.945 20105180.540 -2432182.492 10 0 60826 35100.00000 0 15767960.792 20079252.849 789423.371 10 0 60826 36000.00000 0 15718434.858 19740012.361 3995764.050 10 0 60826 36900.00000 0 15369787.879 19129673.555 7124849.248 10 0 60826 37800.00000 0 14695121.741 18298723.049 10116250.225 10 0 60826 38700.00000 0 13679440.146 17303673.166 12912248.092 10 0 60826 39600.00000 0 12320495.171 16204587.045 15458926.315 10 0 60826 40500.00000 0 10629113.205 15062478.263 17707188.264 10 0 60826 41400.00000 0 8628986.988 13936692.481 19613682.328 10 0 60826 42300.00000 0 6355941.975 12882378.771 21141618.802 10 0 60826 43200.00000 0 3856706.334 11948154.273 22261464.804 10 0 60826 44100.00000 0 1187233.645 11174057.754 22951505.426 10 0 60826 45000.00000 0 -1589354.767 10589875.897 23198261.411 10 0 60826 45900.00000 0 -4405125.672 10213911.180 22996755.813 10 0 60826 46800.00000 0 -7189893.716 10052242.474 22350624.262 10 0 60826 47700.00000 0 -9873882.263 10098509.849 21272065.757 10 0 60826 48600.00000 0 -12390377.871 10334233.874 19781633.332 10 0 60826 49500.00000 0 -14678270.514 10729658.064 17907866.404 10 0 60826 50400.00000 0 -16684375.326 11245081.548 15686769.374 10 0 60826 51300.00000 0 -18365439.730 11832628.534 13161143.815 10 0 60826 52200.00000 0 -19689751.787 12438382.482 10379784.524 10 0 60826 53100.00000 0 -20638281.255 13004796.865 7396552.717 10 0 60826 54000.00000 0 -21205303.737 13473281.800 4269342.573 10 0 60826 54900.00000 0 -21398479.578 13786857.294 1058960.140 10 0 60826 55800.00000 0 -21238382.070 13892759.878 -2172063.834 10 0 60826 56700.00000 0 -20757493.066 13744890.290 -5360703.486 10 0 60826 57600.00000 0 -19998707.231 13305995.814 -8444684.555 10 0 60826 58500.00000 0 -19013407.698 12549491.553 -11363722.006 10 0 60826 59400.00000 0 -17859194.951 11460840.043 -14060722.071 10 0 60826 60300.00000 0 -16597366.207 10038427.563 -16482922.766 10 0 60826 61200.00000 0 -15290253.763 8293897.178 -18582948.137 10 0 60826 62100.00000 0 -13998537.095 6251922.330 -20319753.489 10 0 60826 63000.00000 0 -12778644.605 3949429.101 -21659441.408 10 0 60826 63900.00000 0 -11680356.853 1434299.391 -22575931.457 10 0 60826 64800.00000 0 -10744714.016 -1236390.260 -23051469.912 10 0 60826 65700.00000 0 -10002316.674 -3998519.505 -23076969.689 10 0 60826 66600.00000 0 -9472091.577 -6783373.338 -22652174.430 10 0 60826 67500.00000 0 -9160573.501 -9520285.783 -21785644.690 10 0 60826 68400.00000 0 -9061731.751 -12139366.525 -20494568.006 10 0 60826 69300.00000 0 -9157346.254 -14574195.846 -18804398.291 10 0 60826 70200.00000 0 -9417914.616 -16764375.243 -16748333.487 10 0 60826 71100.00000 0 -9804048.935 -18657827.941 -14366643.541 10 0 60826 72000.00000 0 -10268300.610 -20212754.580 -11705863.624 10 0 60826 72900.00000 0 -10757333.698 -21399164.581 -8817869.921 10 0 60826 73800.00000 0 -11214353.146 -22199921.944 -5758857.329 10 0 60826 74700.00000 0 -11581684.194 -22611264.864 -2588239.981 10 0 60826 75600.00000 0 -11803393.623 -22642780.792 632503.427 10 0 60826 76500.00000 0 -11827842.496 -22316841.157 3841016.942 10 0 60826 77400.00000 0 -11610063.639 -21667522.269 6975264.533 10 0 60826 78300.00000 0 -11113865.023 -20739059.829 9974714.738 10 0 60826 79200.00000 0 -10313572.076 -19583903.176 12781491.145 10 0 60826 80100.00000 0 -9195337.193 -18260451.302 15341468.022 10 0 60826 81000.00000 0 -7757962.702 -16830565.033 17605291.923 10 0 60826 81900.00000 0 -6013203.460 -15356958.253 19529311.667 10 0 60826 82800.00000 0 -3985536.322 -13900575.439 21076400.837 10 0 60826 83700.00000 0 -1711405.219 -12518062.850 22216658.966 10 0 60826 84600.00000 0 762028.510 -11259436.625 22927979.478 10 0 60826 85500.00000 0 3378581.051 -10166043.010 23196474.620 10 0 60827 0.00000 0 6075118.784 -9268894.181 23016749.713 10 0 60827 900.00000 0 8783927.531 -8587447.684 22392021.079 10 0 60827 1800.00000 0 11435279.961 -8128881.352 21334074.781 10 0 60827 2700.00000 0 13960102.572 -7887893.023 19863065.051 10 0 60827 3600.00000 0 16292630.605 -7847036.001 18007154.252 10 0 60827 4500.00000 0 18372943.736 -7977577.628 15801998.770 10 0 60827 5400.00000 0 20149277.700 -8240847.212 13290088.053 10 0 60827 6300.00000 0 21580015.296 -8590018.897 10519946.910 10 0 60827 7200.00000 0 22635272.604 -8972256.269 7545214.238 10 0 60827 8100.00000 0 23298012.205 -9331129.510 4423614.258 10 0 60827 9000.00000 0 23564634.517 -9609203.416 1215839.120 10 0 60827 9900.00000 0 23445019.961 -9750686.242 -2015635.622 10 0 60827 10800.00000 0 22962018.009 -9704025.722 -5207779.122 10 0 60827 11700.00000 0 22150402.908 -9424339.874 -8298251.732 10 0 60827 12600.00000 0 21055339.131 -8875576.556 -11226643.649 10 0 60827 13500.00000 0 19730421.168 -8032306.885 -13935679.283 10 0 60827 14400.00000 0 18235371.097 -6881073.135 -16372361.318 10 0 60827 15300.00000 0 16633492.610 -5421230.972 -18489029.678 10 0 60827 16200.00000 0 14988990.908 -3665247.811 -20244312.526 10 0 60827 17100.00000 0 13364273.738 -1638442.877 -21603948.969 10 0 60827 18000.00000 0 11817349.540 621821.115 -22541466.178 10 0 60827 18900.00000 0 10399434.093 3067460.848 -23038697.145 10 0 60827 19800.00000 0 9152867.556 5641453.835 -23086128.997 10 0 60827 20700.00000 0 8109429.890 8280002.655 -22683075.679 10 0 60827 21600.00000 0 7289124.933 10914990.053 -21837672.759 10 0 60827 22500.00000 0 6699482.735 13476620.953 -20566695.933 10 0 60827 23400.00000 0 6335407.245 15896139.815 -18895208.515 10 0 60827 24300.00000 0 6179572.841 18108509.256 -16856046.670 10 0 60827 25200.00000 0 6203349.792 20054938.083 -14489154.332 10 0 60827 26100.00000 0 6368216.391 21685153.889 -11840782.560 10 0 60827 27000.00000 0 6627595.141 22959326.760 -8962570.606 10 0 60827 27900.00000 0 6929033.014 23849565.889 -5910527.908 10 0 60827 28800.00000 0 7216631.813 24340929.156 -2743937.880 10 0 60827 29700.00000 0 7433624.949 24431906.470 475794.550 10 0 60827 30600.00000 0 7524991.546 24134359.680 3686329.138 10 0 60827 31500.00000 0 7439997.963 23472924.405 6825587.471 10 0 60827 32400.00000 0 7134560.616 22483901.188 9832938.679 10 0 60827 33300.00000 0 6573331.925 21213684.049 12650351.989 10 0 60827 34200.00000 0 5731423.184 19716793.042 15223495.452 10 0 60827 35100.00000 0 4595693.329 18053593.040 17502761.543 10 0 60827 36000.00000 0 3165550.519 16287793.148 19444201.976 10 0 60827 36900.00000 0 1453233.299 14483829.540 21010355.807 10 0 60827 37800.00000 0 -516440.873 12704238.721 22170956.827 10 0 60827 38700.00000 0 -2706850.605 11007128.279 22903508.299 10 0 60827 39600.00000 0 -5070838.905 9443848.107 23193715.083 10 0 60827 40500.00000 0 -7552424.974 8056956.952 23035765.366 10 0 60827 41400.00000 0 -10088891.683 6878567.417 22432456.430 10 0 60827 42300.00000 0 -12613165.498 5929137.496 21395161.099 10 0 60827 43200.00000 0 -15056393.417 5216758.989 19943633.966 10 0 60827 44100.00000 0 -17350612.816 4736973.177 18105658.982 10 0 60827 45000.00000 0 -19431405.346 4473122.856 15916542.677 10 0 60827 45900.00000 0 -21240425.737 4397227.800 13418460.103 10 0 60827 46800.00000 0 -22727700.311 4471348.895 10659663.466 10 0 60827 47700.00000 0 -23853598.453 4649385.453 7693566.487 10 0 60827 48600.00000 0 -24590392.944 4879231.398 4577720.404 10 0 60827 49500.00000 0 -24923341.467 5105200.051 1372700.382 10 0 60827 50400.00000 0 -24851241.267 5270614.850 -1859076.326 10 0 60827 51300.00000 0 -24386431.042 5320455.299 -5054576.973 10 0 60827 52200.00000 0 -23554237.726 5203944.032 -8151399.551 10 0 60827 53100.00000 0 -22391889.824 4876962.683 -11089012.443 10 0 60827 54000.00000 0 -20946942.310 4304190.910 -13809961.055 10 0 60827 54900.00000 0 -19275279.528 3460874.577 -16261015.368 10 0 60827 55800.00000 0 -17438781.252 2334144.945 -18394233.552 10 0 60827 56700.00000 0 -15502751.810 923830.223 -20167918.630 10 0 60827 57600.00000 0 -13533222.575 -757277.047 -21547447.800 10 0 60827 58500.00000 0 -11594243.487 -2683709.448 -22505956.931 10 0 60827 59400.00000 0 -9745279.427 -4818159.455 -23024866.297 10 0 60827 60300.00000 0 -8038822.268 -7112824.243 -23094237.288 10 0 60827 61200.00000 0 -6518319.598 -9511203.276 -22712953.716 10 0 60827 62100.00000 0 -5216506.848 -11950272.102 -21888725.271 10 0 60827 63000.00000 0 -4154211.684 -14362939.910 -20637914.516 10 0 60827 63900.00000 0 -3339678.802 -16680686.674 -18985192.530 10 0 60827 64800.00000 0 -2768440.704 -18836268.570 -16963031.803 10 0 60827 65700.00000 0 -2423736.542 -20766378.076 -14611048.139 10 0 60827 66600.00000 0 -2277457.888 -22414147.661 -11975206.258 10 0 60827 67500.00000 0 -2291578.092 -23731393.260 -9106906.182 10 0 60827 68400.00000 0 -2420001.863 -24680505.261 -6061969.592 10 0 60827 69300.00000 0 -2610754.492 -25235910.037 -2899546.929 10 0 60827 70200.00000 0 -2808416.562 -25385043.436 319032.851 10 0 60827 71100.00000 0 -2956700.408 -25128798.251 3531447.357 10 0 60827 72000.00000 0 -3001059.473 -24481429.646 6675577.896 10 0 60827 72900.00000 0 -2891221.091 -23469924.890 9690696.247 10 0 60827 73800.00000 0 -2583537.103 -22132865.595 12518619.306 10 0 60827 74700.00000 0 -2043054.805 -20518831.127 15104810.877 10 0 60827 75600.00000 0 -1245222.655 -18684410.160 17399411.236 10 0 60827 76500.00000 0 -177160.397 -16691902.723 19358176.751 10 0 60827 77400.00000 0 1161558.879 -14606807.204 20943313.515 10 0 60827 78300.00000 0 2758647.424 -12495194.921 22124190.937 10 0 60827 79200.00000 0 4589373.988 -10421079.088 22877923.226 10 0 60827 80100.00000 0 6617357.795 -8443885.026 23189808.685 10 0 60827 81000.00000 0 8795854.719 -6616124.367 23053618.992 10 0 60827 81900.00000 0 11069485.237 -4981367.857 22471732.679 10 0 60827 82800.00000 0 13376335.675 -3572599.699 21455109.411 10 0 60827 83700.00000 0 15650348.861 -2411021.233 20023104.013 10 0 60827 84600.00000 0 17823907.932 -1505353.904 18203121.666 10 0 60827 85500.00000 0 19830508.296 -851671.497 16030118.456 99